#timestamp,LO_Frequency,Hit,StdDev 
1508922015.8,286047000.9,N
1508922035.6,286047003.0,N
1508922055.4,286047003.8,N
1508922075.3,286047003.8,N
1508922095.1,286047005.6,N
1508922115.8,286046999.9,N
1508922135.7,286047005.8,N
1508922155.5,286047006.7,N
1508922175.3,286047002.6,N
1508922195.2,286047000.1,N
1508922215.0,286047003.2,N
1508922215.9,286047003.2,N
1508922235.7,286047003.0,N
1508922255.6,286047001.9,N
1508922275.4,286047004.0,N
1508922295.3,286047004.2,N
1508922315.1,286047005.5,N
1508922316.0,286047005.5,N
1508922335.8,286047006.4,N
1508922355.7,286047001.7,N
1508922375.5,286047001.7,N
1508922395.3,286047004.4,N
1508922415.2,286047004.9,N
1508922435.9,286047007.6,N
1508922455.7,286047005.9,N
1508922475.6,286047004.8,N
1508922495.4,286047005.0,N
1508922515.2,286047006.0,N
1508922535.1,286047005.2,N
1508922536.0,286047005.2,N
1508922555.8,286047005.0,N
1508922575.6,286047004.1,N
1508922595.5,286047002.1,N
1508922615.3,286047002.1,N
1508922635.1,286047005.5,N
1508922655.9,286047003.9,N
1508922675.7,286047003.4,N
1508922695.5,286047004.0,N
1508922715.4,286047005.9,Y
1508922735.2,286047000.7,P
1508922755.0,286046996.6,N
1508922755.9,286046996.6,N
1508922775.8,286046993.9,N
1508922795.6,286046994.5,N
1508922815.4,286046997.0,N
1508922835.3,286046993.5,N
1508922855.1,286046996.3,N
1508922875.8,286046997.4,N
1508922895.7,286046994.0,N
1508922915.5,286046996.0,N
1508922935.3,286046993.3,N
1508922955.2,286046999.0,N
1508922975.0,286046999.4,N
1508922975.9,286046999.4,N
1508922995.7,286046995.0,N
1508923015.6,286046996.4,N
1508923035.4,286046994.4,N
1508923055.2,286046994.1,N
1508923075.1,286046996.4,N
1508923076.0,286046996.4,N
1508923095.8,286046991.9,Y
1508923115.7,286046998.0,P
1508923135.5,286046996.7,P
1508923155.3,286047000.2,N
1508923175.2,286047003.8,N
1508923195.9,286047000.7,N
1508923215.7,286046998.4,N
1508923235.6,286047000.3,N
1508923255.4,286046996.6,N
1508923275.2,286046997.4,N
1508923295.1,286046995.9,N
1508923296.0,286046995.9,N
1508923315.8,286046997.6,N
1508923335.6,286047001.2,N
1508923355.5,286046996.3,N
1508923375.3,286046997.7,N
1508923395.1,286046998.4,N
1508923415.9,286046998.8,N
1508923435.7,286046997.8,N
1508923455.5,286046992.4,Y
1508923475.4,286046996.7,P
1508923495.2,286047000.3,N
1508923515.0,286047000.3,N
1508923515.9,286047000.3,N
1508923535.8,286046999.5,N
1508923555.6,286046995.4,Y
1508923575.5,286047001.9,P
1508923595.3,286047001.8,N
1508923615.1,286047006.0,P
1508923635.9,286047003.5,N
1508923655.7,286047004.9,N
1508923675.5,286047004.2,N
1508923695.4,286047001.9,N
1508923715.2,286047005.5,N
1508923735.0,286047002.9,N
1508923735.9,286047002.9,N
1508923755.8,286047001.3,N
1508923775.6,286047001.4,N
1508923795.4,286047000.6,N
1508923815.3,286047000.6,N
1508923835.1,286046999.7,N
1508923855.8,286047002.0,N
1508923875.7,286047001.2,N
1508923895.5,286046999.8,N
1508923915.3,286047000.7,N
1508923935.2,286046994.9,N
1508923955.9,286046996.2,N
1508923975.7,286046997.4,N
1508923995.6,286046995.9,N
1508924015.4,286046999.0,N
1508924035.2,286046995.0,N
1508924055.1,286046993.6,N
1508924056.0,286046993.6,N
1508924075.8,286046991.8,N
1508924095.6,286046996.4,N
1508924115.5,286046996.3,N
1508924135.3,286046995.0,N
1508924155.1,286046999.2,N
1508924175.9,286046999.2,N
1508924195.7,286046998.2,N
1508924215.5,286047000.3,N
1508924235.4,286046999.8,N
1508924255.2,286047001.6,N
1508924275.1,286047000.2,N
1508924276.0,286047000.2,N
1508924295.8,286047003.1,N
1508924315.6,286047004.8,N
1508924335.5,286047003.6,N
1508924355.3,286047002.8,N
1508924375.1,286047002.8,N
1508924395.9,286047005.6,N
1508924415.7,286047004.4,N
1508924435.5,286047000.3,N
1508924455.4,286046995.5,N
1508924475.2,286046997.2,N
1508924495.0,286047000.9,N
1508924495.9,286047000.9,N
1508924515.8,286047002.6,N
1508924535.6,286047004.3,N
1508924555.4,286047000.0,N
1508924575.3,286047001.1,N
1508924595.1,286046999.7,N
1508924596.0,286046999.7,N
1508924615.8,286046999.6,N
1508924635.7,286047001.2,N
1508924655.5,286047002.7,N
1508924675.3,286046999.7,N
1508924695.2,286047000.1,N
1508924715.0,286047002.5,N
1508924715.9,286047002.5,N
1508924735.7,286047005.6,N
1508924755.6,286047006.0,N
1508924775.4,286047007.9,Y
1508924795.3,286047005.6,P
1508924815.1,286047004.9,N
1508924816.0,286047004.9,N
1508924835.8,286047003.4,N
1508924855.7,286047002.4,N
1508924875.5,286046998.4,N
1508924895.3,286046998.9,N
1508924915.2,286047000.2,N
1508924935.9,286046998.2,N
1508924955.7,286047003.9,N
1508924975.6,286046998.1,N
1508924995.4,286047000.4,N
1508925015.2,286047000.1,N
1508925035.1,286047002.7,N
1508925036.0,286047002.7,N
1508925055.8,286047000.8,N
1508925075.6,286047003.7,N
1508925095.5,286046998.6,N
1508925115.3,286046994.9,N
1508925135.1,286046996.9,N
1508925155.9,286046999.6,N
1508925175.7,286046996.7,N
1508925195.5,286046997.8,N
1508925215.4,286046998.4,N
1508925235.2,286046999.0,N
1508925255.0,286046994.9,N
1508925255.9,286046994.9,N
1508925275.8,286046995.0,N
1508925295.6,286046996.5,N
1508925315.4,286046999.6,N
1508925335.3,286046998.7,N
1508925355.1,286046999.7,N
1508925375.9,286047004.2,N
1508925395.7,286047003.3,N
1508925415.5,286047008.8,Y
1508925435.4,286047005.0,P
1508925455.2,286047002.9,N
1508925475.0,286047005.3,N
1508925475.9,286047005.3,N
1508925495.8,286047005.9,N
1508925515.6,286047004.3,N
1508925535.4,286047001.8,N
1508925555.3,286047003.8,N
1508925575.1,286047002.9,N
1508925595.8,286047004.4,N
